SCP
0 0 0 0 0 0 0 0 0 0 0 0 0 0 0 0 0 0 0 0 0 0 0 0 0 0 0 0 0 0 0 0 0 0 0 0 0 0 0 0 0 0 0
0 0 0 0 0 0 0 0 0 0 0 0 0 0 0 0 0 0 0 0 0 0 0 0 0 0 0 0 0 0 0 0 0 0 0 0 0 0 -0 0 0 0 0
0 0 0 0 0 0 0 0 0 0 0 0 0 0 0 0 0 0 0 0 0 0 0 0 0 0 0 0 0 0 0 0 0 0 0 0 0 0 0 0 0 0 0
0 0 0 0 0 0 0 0 0 0 0 0 0 0 0 0 0 0 0 0 0 0 0 0 0 0 0 0 0 0 0 0 0 0 0 0 0 0 0 0 0 0 0
0 0 0 0 0 0 0 0 0 0 0 0 0 0 0 0 0 0 0 0 0 0 0 0 0 0 0 0 0 0 0 0 0 0 0 0 0 0 0 0 0 0 0
0 0 0 0 0 0 0 0 0 0 0 0 0 0 0 0 0 0 0 0 0 0 0 0 0 0 0 0 0 -0 -0 -0 0 0 0 0 0 0 0 0 0 0 0
0 0 0 0 0 0 0 0 0 0 0 0 0 0 0 0 0 0 0 0 0 0 0 0 0 0 0 0 0 0 0 0 0 -0 -0 0 0 0 0 0 0 0 0
0 0 0 0 0 0 0 0 0 0 0 0 0 0 0 0 0 0 0 0 0 0 0 0 0 0 0 0 0 0 0 0 -0 -0 -0 0 0 0 0 0 0 0 0
0 0 0 0 0 0 0 0 0 0 0 0 0 0 0 0 0 0 0 0 0 0 0 0 0 0 0 0 0 0 0 -0 0 0 0 0 0 -0 0 0 0 0 0
0 0 0 0 0 0 0 -0 0 0 0 0 0 0 0 0 0 0 0 0 0 0 0 0 0 0 0 -0 0 0 0 0 0 0 0 -0 -0 -0 -0 0 0 0 0
0 0 0 0 0 0 0 0 -0 -0 -0 -0 0 0 0 0 0 0 0 0 0 0 0 0 0 0 0 0 0 0 0 0 0 0 0 0 0 0 -0 -0 -0 -0 0
0 0 0 0 0 0 0 0 -0 -0 -0 -0 -0 0 0 0 0 0 0 0 0 -0 -0 -0 -0 0 0 0 0 0 -0 0 0 0 0 0 -0 -0 -0 -0 -0 -0 -0
0 0 0 0 0 0 0 0 0 0 -0 -0 -0 0 0 0 0 0 0 -0 -0 0 0 -0 -0 -0 -0 -0 -0 -0 -0 0 0 0 0 -0 -0 -0 -0 -0 -0 -0 -0
0 0 0 0 0 0 0 0 0 0 -0 -0 -0 -0 0 0 0 0 0 0 0 0 -0 0 -0 -0 -0 0 0 0 0 0 0 0 -0 -0 -0 -0 -0 -0 -0 -0 -0
0 0 0 0 0 0 0 0 0 0 0 -0 -0 -0 0 0 0 -0 0 0 0 -0 0 0 0 0 0 0 0 -0 0 0 0 -0 -0 -0 -0 -0 -0 -0 -0 -0 -0
0 0 0 0 0 0 0 0 0 0 0 0 0 0 -0 0 0 -0 -0 -0 -0 -0 -0 0 -0 -0 -0 -0 -0 -0 0 0 -0 -0 -0 -0 -0 -0 -0 -0 0 0 0
0 0 0 0 0 0 0 0 0 0 0 0 0 0 -0 -0 -0 -0 -0 -0 -0 -0 -0 -0 -0 -0 0 0 0 0 0 0 -0 -0 -0 -0 0 0 0 0 0 0 0
0 0 0 0 0 0 0 0 0 0 0 0 0 0 -0 0 -0 -0 0 -0 -0 -0 0 0 0 0 0 0 0 0 0 -0 0 0 0 0 0 0 0 0 0 0 -0
0 0 0 0 0 0 0 0 0 0 0 0 0 0 -0 0 -0 -0 -0 0 0 0 0 0 0 0 0 0 0 0 0 0 0 0 0 0 0 0 -0 -0 -0 -0 -0
0 0 0 0 0 0 0 0 0 0 0 0 0 0 -0 -0 -0 -0 0 0 -0 -0 -0 -0 0 0 0 0 0 0 0 0 0 0 0 -0 -0 -0 -0 -0 0 0 0
0 0 0 0 0 0 0 0 0 0 0 0 0 0 0 -0 -0 0 0 0 0 0 0 0 0 0 0 0 0 0 0 0 -0 -0 -0 -0 -0 -0 0 0 0 0 0
0 0 0 0 0 0 0 0 0 0 0 0 0 0 0 0 0 0 0 0 0 0 0 0 0 0 -0 -0 0 -0 -0 -0 -0 -0 -0 -0 0 0 0 0 0 0 0
0 0 0 0 0 0 0 0 0 0 0 0 0 0 0 0 0 0 0 0 0 0 0 0 0 0 0 0 0 0 -0 -0 -0 -0 -0 -0 0 0 0 0 0 0 0
0 0 0 0 0 0 0 0 0 0 0 0 0 0 0 0 0 0 0 0 0 0 0 0 0 0 0 0 0 0 -0 -0 -0 -0 -0 -0 -0 -0 0 0 0 0 0
0 0 0 0 0 0 0 0 0 0 0 0 0 0 0 0 0 0 0 0 0 0 0 0 0 0 0 0 -0 -0 -0 -0 -0 0 0 -0 -0 0 0 0 0 0 0
0 0 0 0 0 0 0 0 0 0 0 0 0 0 0 0 0 0 0 0 0 0 0 0 0 0 0 -0 -0 -0 -0 -0 -0 -0 0 0 0 0 0 0 0 0 0
Wind_Speed_500mb
37 41 46 51 54 58 60 60 61 57 50 48 45 45 45 42 42 48 53 57 62 65 64 65 66 61 58 59 59 65 70 64 73 71 72 75 67 58 57 56 54 57 52
36 40 45 53 58 60 62 61 59 56 49 45 41 46 46 46 49 52 55 56 58 62 63 62 63 57 55 55 53 59 62 65 51 69 69 81 93 98 96 71 47 45 43
37 41 45 53 59 62 66 67 60 54 44 42 44 47 48 49 51 50 54 52 53 55 53 55 55 51 54 53 49 53 50 51 60 73 72 62 64 61 64 69 54 46 49
39 41 46 54 59 62 64 65 57 47 45 44 44 47 48 47 45 48 47 48 52 54 52 47 44 46 48 47 45 49 47 54 45 60 52 49 42 49 67 69 81 58 53
38 41 44 51 57 61 62 61 52 46 44 44 45 46 47 45 47 46 47 48 49 48 47 41 40 40 44 44 37 40 35 40 46 59 59 48 59 50 54 53 63 55 47
38 41 43 51 57 61 62 60 54 51 48 45 44 47 48 48 46 47 50 50 47 49 45 38 37 34 35 36 40 48 53 53 40 39 40 54 60 59 57 57 52 49 41
42 43 45 51 58 63 63 61 59 58 55 49 45 45 47 45 44 49 43 42 45 42 35 31 30 30 28 29 32 29 36 43 40 39 46 40 48 48 42 51 50 45 35
42 45 46 51 57 60 62 61 60 62 59 50 45 42 42 40 45 46 36 42 36 33 30 24 23 22 23 22 25 28 26 32 36 40 36 40 37 31 40 45 37 30 28
44 46 47 48 53 57 59 60 61 65 60 46 41 38 36 40 46 40 36 34 28 22 25 19 17 24 19 17 23 15 21 24 28 31 35 35 25 27 35 37 33 31 26
51 47 48 48 49 52 55 57 60 62 59 47 40 35 33 40 42 42 42 31 30 26 26 19 23 26 15 14 15 20 20 20 25 17 28 18 20 24 30 27 31 34 34
52 53 48 48 47 48 51 52 56 59 58 44 36 33 34 36 38 42 41 39 34 29 27 24 17 9 9 11 16 18 19 17 19 25 30 32 27 29 29 29 32 28 30
52 55 51 50 47 46 48 49 48 53 55 48 37 31 32 33 32 38 42 40 37 19 18 12 4 9 10 10 11 14 16 18 38 34 30 32 30 25 20 18 19 23 26
48 53 52 52 49 45 45 48 46 48 50 50 42 37 32 31 27 31 38 42 35 26 17 8 6 1 8 16 16 10 15 36 41 41 31 27 25 24 21 20 20 20 25
44 50 55 54 52 46 43 43 45 43 45 45 45 39 33 25 24 25 30 33 29 23 18 11 6 3 9 11 13 17 30 33 32 32 33 32 30 28 31 33 33 36 43
47 48 57 55 54 48 42 40 43 38 40 41 40 37 34 28 24 25 26 24 24 19 11 8 11 18 23 27 30 32 32 31 32 33 35 40 41 42 47 45 49 56 64
56 54 57 60 53 52 44 40 37 39 33 35 35 31 31 30 24 20 18 18 13 12 3 9 20 25 31 34 36 37 34 32 33 38 45 49 52 52 51 50 50 50 55
63 60 59 62 56 53 46 42 36 37 32 30 33 29 27 30 27 21 17 13 10 7 7 10 18 25 29 32 34 34 37 41 46 51 53 51 48 45 44 46 45 43 47
57 54 57 57 58 51 49 42 41 36 32 23 26 24 20 23 24 21 18 15 7 1 7 13 19 24 29 33 38 44 51 53 49 46 42 39 40 42 42 41 38 37 38
55 56 55 55 56 48 50 43 45 39 37 23 18 19 15 14 18 20 19 17 15 17 19 24 28 34 39 43 46 47 47 44 39 36 38 39 39 36 39 37 35 32 28
58 56 54 56 58 50 51 49 47 45 38 29 17 14 12 5 9 14 17 19 23 27 31 34 37 39 41 41 41 39 38 37 38 38 39 37 35 31 30 30 28 27 27
64 60 58 61 61 58 53 53 49 49 42 37 24 15 13 8 5 7 9 12 15 20 23 26 28 28 29 30 32 34 34 35 34 33 34 33 30 26 26 26 26 25 22
73 72 65 68 64 63 55 58 51 52 49 43 35 22 19 17 13 12 12 11 14 17 19 20 23 25 25 25 26 27 29 30 31 30 29 27 25 23 23 22 21 20 21
56 68 66 67 70 65 60 59 55 54 56 49 44 33 26 24 22 21 19 18 19 21 22 23 23 27 29 28 27 23 21 23 24 24 23 23 22 19 20 19 19 21 24
57 60 57 62 69 66 63 63 60 56 60 57 51 44 35 31 29 28 27 25 25 26 27 28 28 29 33 34 33 31 27 24 24 22 17 15 15 17 16 16 20 22 23
59 59 61 67 71 66 64 67 64 59 63 63 58 53 45 39 37 35 33 30 30 30 33 34 33 34 34 32 30 28 26 24 22 20 18 15 13 16 17 18 19 21 20
64 66 66 66 69 67 66 68 65 61 65 67 64 60 53 46 43 43 42 40 39 39 39 38 38 38 37 35 32 29 25 23 21 21 18 15 13 15 16 16 17 17 18
Wind_Direction_500mb
323 323 328 332 333 333 329 326 322 319 316 314 310 306 307 311 306 301 300 298 294 292 288 284 283 278 271 265 266 263 258 257 256 262 256 260 257 257 248 248 256 259 259
324 327 332 337 340 340 338 332 324 319 313 315 316 315 312 305 303 301 302 301 297 291 286 282 282 279 269 268 263 266 261 250 259 262 268 265 261 262 265 271 274 258 262
332 334 339 341 343 343 339 334 330 326 321 317 310 309 307 305 305 309 307 301 297 292 285 278 278 274 266 268 265 261 267 266 254 257 263 267 265 265 251 261 255 264 259
336 337 339 341 344 342 341 339 335 337 327 316 312 311 309 311 315 316 313 307 303 293 287 280 278 270 265 265 268 253 256 257 268 250 254 254 268 265 254 253 248 263 262
340 336 335 339 343 342 341 341 338 330 324 317 314 314 313 316 319 319 313 307 308 301 292 282 282 273 265 255 260 254 256 270 263 262 261 271 264 266 249 230 243 255 253
341 337 335 339 343 343 343 341 340 333 323 317 314 312 313 315 315 314 314 302 293 309 297 283 285 284 268 263 265 254 254 249 265 275 260 260 264 265 258 243 237 238 230
342 339 336 339 343 345 346 343 342 338 330 319 312 310 312 316 317 319 320 314 303 300 311 289 286 276 276 276 254 255 258 245 253 266 266 272 265 268 243 224 232 232 226
341 339 336 336 342 345 348 349 347 345 337 329 323 320 319 322 324 328 329 323 313 308 307 293 278 284 281 269 249 247 249 249 259 266 260 274 262 258 249 234 215 201 203
340 339 334 332 339 342 348 352 351 348 345 339 337 330 330 327 328 338 331 332 324 321 307 298 284 294 272 267 229 251 255 254 260 257 255 252 257 237 219 197 196 188 174
347 339 333 330 336 340 346 352 352 352 349 344 341 334 333 331 344 343 335 338 333 315 311 306 294 287 266 202 223 256 245 268 278 253 206 237 201 163 165 178 189 188 181
344 342 332 328 330 336 342 349 350 353 352 345 340 337 341 340 356 350 348 9 354 341 321 320 281 208 200 218 222 240 260 243 213 188 175 156 154 158 162 171 179 191 203
336 334 332 325 326 329 335 341 348 351 356 353 344 350 352 349 353 356 359 12 14 2 357 8 56 154 182 234 223 213 215 203 164 163 153 155 147 145 151 169 180 190 195
331 326 329 325 322 321 327 334 342 350 354 357 354 350 353 353 355 1 6 8 11 12 26 4 341 343 160 169 181 180 178 177 171 156 147 140 134 131 138 146 153 159 159
320 318 324 325 320 315 316 326 332 343 351 353 356 356 350 346 346 360 1 4 5 11 20 31 10 275 196 186 169 165 168 172 167 154 142 135 132 124 124 124 128 135 135
307 309 310 318 316 310 307 312 322 334 344 347 351 354 354 344 351 358 353 357 355 4 8 69 104 117 132 137 145 156 162 161 159 148 138 128 123 124 120 125 129 130 120
298 299 299 308 307 305 300 299 311 318 333 341 340 348 355 347 339 347 352 354 354 349 335 140 136 139 145 150 152 152 152 149 139 131 126 124 122 122 122 125 125 123 120
292 292 288 294 301 297 294 289 293 303 315 330 336 344 357 358 355 347 345 334 335 310 255 184 157 155 152 150 145 141 138 132 130 128 127 125 125 127 129 126 125 125 120
277 277 279 284 292 289 289 281 279 290 295 309 325 337 356 9 7 10 21 24 17 276 216 179 165 153 144 140 135 133 131 130 132 130 131 131 130 127 126 125 126 127 130
277 283 277 279 282 282 280 273 268 273 283 287 306 324 337 22 24 26 44 54 75 98 113 122 125 127 128 129 129 129 129 132 135 135 132 130 128 130 129 127 127 127 130
275 278 275 279 281 278 271 272 262 262 271 271 275 297 312 27 61 60 65 83 99 108 114 119 122 125 127 131 135 139 141 141 140 139 134 132 130 132 130 132 134 136 134
275 278 274 273 275 275 269 267 262 257 257 261 254 257 264 253 154 118 106 111 117 120 124 128 130 135 138 143 145 145 146 143 141 140 138 137 136 139 136 135 132 129 121
266 265 268 269 270 270 267 263 259 251 248 251 247 236 238 238 205 184 168 170 164 156 149 149 148 146 144 144 145 146 146 145 144 144 142 141 141 143 134 123 118 123 127
257 255 257 260 263 263 261 258 254 245 242 241 243 231 225 229 217 200 191 189 187 179 170 162 162 155 150 146 142 141 142 141 143 147 146 141 138 131 123 121 120 126 127
256 260 257 252 255 256 256 255 252 243 237 236 237 232 224 224 221 207 196 196 198 191 183 175 170 167 158 152 150 151 152 147 141 140 142 135 129 125 121 127 125 121 115
260 261 253 249 250 252 251 250 250 242 234 231 230 229 223 220 218 211 202 199 198 198 191 183 178 175 169 165 161 159 159 159 153 148 145 143 135 126 123 119 114 115 119
261 256 252 252 250 249 246 247 247 241 233 228 226 227 222 220 219 212 204 200 201 197 192 187 182 181 178 172 170 167 167 163 158 155 152 143 131 114 110 114 120 134 145
Wind_Speed_850mb
37 41 46 51 54 58 60 60 61 57 50 48 45 45 45 42 42 48 53 57 62 65 64 65 66 61 58 59 59 65 70 64 73 71 72 75 67 58 57 56 54 57 52
36 40 45 53 58 60 62 61 59 56 49 45 41 46 46 46 49 52 55 56 58 62 63 62 63 57 55 55 53 59 62 65 51 69 69 81 93 98 96 71 47 45 43
37 41 45 53 59 62 66 67 60 54 44 42 44 47 48 49 51 50 54 52 53 55 53 55 55 51 54 53 49 53 50 51 60 73 72 62 64 61 64 69 54 46 49
39 41 46 54 59 62 64 65 57 47 45 44 44 47 48 47 45 48 47 48 52 54 52 47 44 46 48 47 45 49 47 54 45 60 52 49 42 49 67 69 81 58 53
38 41 44 51 57 61 62 61 52 46 44 44 45 46 47 45 47 46 47 48 49 48 47 41 40 40 44 44 37 40 35 40 46 59 59 48 59 50 54 53 63 55 47
38 41 43 51 57 61 62 60 54 51 48 45 44 47 48 48 46 47 50 50 47 49 45 38 37 34 35 36 40 48 53 53 40 39 40 54 60 59 57 57 52 49 41
42 43 45 51 58 63 63 61 59 58 55 49 45 45 47 45 44 49 43 42 45 42 35 31 30 30 28 29 32 29 36 43 40 39 46 40 48 48 42 51 50 45 35
42 45 46 51 57 60 62 61 60 62 59 50 45 42 42 40 45 46 36 42 36 33 30 24 23 22 23 22 25 28 26 32 36 40 36 40 37 31 40 45 37 30 28
44 46 47 48 53 57 59 60 61 65 60 46 41 38 36 40 46 40 36 34 28 22 25 19 17 24 19 17 23 15 21 24 28 31 35 35 25 27 35 37 33 31 26
51 47 48 48 49 52 55 57 60 62 59 47 40 35 33 40 42 42 42 31 30 26 26 19 23 26 15 14 15 20 20 20 25 17 28 18 20 24 30 27 31 34 34
52 53 48 48 47 48 51 52 56 59 58 44 36 33 34 36 38 42 41 39 34 29 27 24 17 9 9 11 16 18 19 17 19 25 30 32 27 29 29 29 32 28 30
52 55 51 50 47 46 48 49 48 53 55 48 37 31 32 33 32 38 42 40 37 19 18 12 4 9 10 10 11 14 16 18 38 34 30 32 30 25 20 18 19 23 26
48 53 52 52 49 45 45 48 46 48 50 50 42 37 32 31 27 31 38 42 35 26 17 8 6 1 8 16 16 10 15 36 41 41 31 27 25 24 21 20 20 20 25
44 50 55 54 52 46 43 43 45 43 45 45 45 39 33 25 24 25 30 33 29 23 18 11 6 3 9 11 13 17 30 33 32 32 33 32 30 28 31 33 33 36 43
47 48 57 55 54 48 42 40 43 38 40 41 40 37 34 28 24 25 26 24 24 19 11 8 11 18 23 27 30 32 32 31 32 33 35 40 41 42 47 45 49 56 64
56 54 57 60 53 52 44 40 37 39 33 35 35 31 31 30 24 20 18 18 13 12 3 9 20 25 31 34 36 37 34 32 33 38 45 49 52 52 51 50 50 50 55
63 60 59 62 56 53 46 42 36 37 32 30 33 29 27 30 27 21 17 13 10 7 7 10 18 25 29 32 34 34 37 41 46 51 53 51 48 45 44 46 45 43 47
57 54 57 57 58 51 49 42 41 36 32 23 26 24 20 23 24 21 18 15 7 1 7 13 19 24 29 33 38 44 51 53 49 46 42 39 40 42 42 41 38 37 38
55 56 55 55 56 48 50 43 45 39 37 23 18 19 15 14 18 20 19 17 15 17 19 24 28 34 39 43 46 47 47 44 39 36 38 39 39 36 39 37 35 32 28
58 56 54 56 58 50 51 49 47 45 38 29 17 14 12 5 9 14 17 19 23 27 31 34 37 39 41 41 41 39 38 37 38 38 39 37 35 31 30 30 28 27 27
64 60 58 61 61 58 53 53 49 49 42 37 24 15 13 8 5 7 9 12 15 20 23 26 28 28 29 30 32 34 34 35 34 33 34 33 30 26 26 26 26 25 22
73 72 65 68 64 63 55 58 51 52 49 43 35 22 19 17 13 12 12 11 14 17 19 20 23 25 25 25 26 27 29 30 31 30 29 27 25 23 23 22 21 20 21
56 68 66 67 70 65 60 59 55 54 56 49 44 33 26 24 22 21 19 18 19 21 22 23 23 27 29 28 27 23 21 23 24 24 23 23 22 19 20 19 19 21 24
57 60 57 62 69 66 63 63 60 56 60 57 51 44 35 31 29 28 27 25 25 26 27 28 28 29 33 34 33 31 27 24 24 22 17 15 15 17 16 16 20 22 23
59 59 61 67 71 66 64 67 64 59 63 63 58 53 45 39 37 35 33 30 30 30 33 34 33 34 34 32 30 28 26 24 22 20 18 15 13 16 17 18 19 21 20
64 66 66 66 69 67 66 68 65 61 65 67 64 60 53 46 43 43 42 40 39 39 39 38 38 38 37 35 32 29 25 23 21 21 18 15 13 15 16 16 17 17 18
Wind_Direction_850mb
323 323 328 332 333 333 329 326 322 319 316 314 310 306 307 311 306 301 300 298 294 292 288 284 283 278 271 265 266 263 258 257 256 262 256 260 257 257 248 248 256 259 259
324 327 332 337 340 340 338 332 324 319 313 315 316 315 312 305 303 301 302 301 297 291 286 282 282 279 269 268 263 266 261 250 259 262 268 265 261 262 265 271 274 258 262
332 334 339 341 343 343 339 334 330 326 321 317 310 309 307 305 305 309 307 301 297 292 285 278 278 274 266 268 265 261 267 266 254 257 263 267 265 265 251 261 255 264 259
336 337 339 341 344 342 341 339 335 337 327 316 312 311 309 311 315 316 313 307 303 293 287 280 278 270 265 265 268 253 256 257 268 250 254 254 268 265 254 253 248 263 262
340 336 335 339 343 342 341 341 338 330 324 317 314 314 313 316 319 319 313 307 308 301 292 282 282 273 265 255 260 254 256 270 263 262 261 271 264 266 249 230 243 255 253
341 337 335 339 343 343 343 341 340 333 323 317 314 312 313 315 315 314 314 302 293 309 297 283 285 284 268 263 265 254 254 249 265 275 260 260 264 265 258 243 237 238 230
342 339 336 339 343 345 346 343 342 338 330 319 312 310 312 316 317 319 320 314 303 300 311 289 286 276 276 276 254 255 258 245 253 266 266 272 265 268 243 224 232 232 226
341 339 336 336 342 345 348 349 347 345 337 329 323 320 319 322 324 328 329 323 313 308 307 293 278 284 281 269 249 247 249 249 259 266 260 274 262 258 249 234 215 201 203
340 339 334 332 339 342 348 352 351 348 345 339 337 330 330 327 328 338 331 332 324 321 307 298 284 294 272 267 229 251 255 254 260 257 255 252 257 237 219 197 196 188 174
347 339 333 330 336 340 346 352 352 352 349 344 341 334 333 331 344 343 335 338 333 315 311 306 294 287 266 202 223 256 245 268 278 253 206 237 201 163 165 178 189 188 181
344 342 332 328 330 336 342 349 350 353 352 345 340 337 341 340 356 350 348 9 354 341 321 320 281 208 200 218 222 240 260 243 213 188 175 156 154 158 162 171 179 191 203
336 334 332 325 326 329 335 341 348 351 356 353 344 350 352 349 353 356 359 12 14 2 357 8 56 154 182 234 223 213 215 203 164 163 153 155 147 145 151 169 180 190 195
331 326 329 325 322 321 327 334 342 350 354 357 354 350 353 353 355 1 6 8 11 12 26 4 341 343 160 169 181 180 178 177 171 156 147 140 134 131 138 146 153 159 159
320 318 324 325 320 315 316 326 332 343 351 353 356 356 350 346 346 360 1 4 5 11 20 31 10 275 196 186 169 165 168 172 167 154 142 135 132 124 124 124 128 135 135
307 309 310 318 316 310 307 312 322 334 344 347 351 354 354 344 351 358 353 357 355 4 8 69 104 117 132 137 145 156 162 161 159 148 138 128 123 124 120 125 129 130 120
298 299 299 308 307 305 300 299 311 318 333 341 340 348 355 347 339 347 352 354 354 349 335 140 136 139 145 150 152 152 152 149 139 131 126 124 122 122 122 125 125 123 120
292 292 288 294 301 297 294 289 293 303 315 330 336 344 357 358 355 347 345 334 335 310 255 184 157 155 152 150 145 141 138 132 130 128 127 125 125 127 129 126 125 125 120
277 277 279 284 292 289 289 281 279 290 295 309 325 337 356 9 7 10 21 24 17 276 216 179 165 153 144 140 135 133 131 130 132 130 131 131 130 127 126 125 126 127 130
277 283 277 279 282 282 280 273 268 273 283 287 306 324 337 22 24 26 44 54 75 98 113 122 125 127 128 129 129 129 129 132 135 135 132 130 128 130 129 127 127 127 130
275 278 275 279 281 278 271 272 262 262 271 271 275 297 312 27 61 60 65 83 99 108 114 119 122 125 127 131 135 139 141 141 140 139 134 132 130 132 130 132 134 136 134
275 278 274 273 275 275 269 267 262 257 257 261 254 257 264 253 154 118 106 111 117 120 124 128 130 135 138 143 145 145 146 143 141 140 138 137 136 139 136 135 132 129 121
266 265 268 269 270 270 267 263 259 251 248 251 247 236 238 238 205 184 168 170 164 156 149 149 148 146 144 144 145 146 146 145 144 144 142 141 141 143 134 123 118 123 127
257 255 257 260 263 263 261 258 254 245 242 241 243 231 225 229 217 200 191 189 187 179 170 162 162 155 150 146 142 141 142 141 143 147 146 141 138 131 123 121 120 126 127
256 260 257 252 255 256 256 255 252 243 237 236 237 232 224 224 221 207 196 196 198 191 183 175 170 167 158 152 150 151 152 147 141 140 142 135 129 125 121 127 125 121 115
260 261 253 249 250 252 251 250 250 242 234 231 230 229 223 220 218 211 202 199 198 198 191 183 178 175 169 165 161 159 159 159 153 148 145 143 135 126 123 119 114 115 119
261 256 252 252 250 249 246 247 247 241 233 228 226 227 222 220 219 212 204 200 201 197 192 187 182 181 178 172 170 167 167 163 158 155 152 143 131 114 110 114 120 134 145